www.pogodaiklimat.ru

Погода и климат >> Архив погоды >> Колумбия >> Араука


ПОГОДА в Арауке

  • Прогноз погоды в Арауке
  • Монитор погоды в Арауке

АРХИВ ПОГОДЫ в Арауке

Время (UTC), дата Ветер
(напр.,м/с)
 
Видим.   Явления Облачность Т
(С)
Тd
(С)
f
(%)
Тe
(С)
Тes
(С)
Комфортность P
(гПа)
Po
(гПа)
Тmin
(С)
Tmax
(С)
R
(мм)
R24
(мм)
S
(см)
15 11.09 СЗ 1 10 км гроза, ливневой дождь 10/9 450 м
[Cb cap Ac As]
+28.6 +24.6 79 +41 +41 опасность
перегрева
1010.7 983.0
18 11.09 В 2 15 км осадки на расстоянии {гроза} 10/4 500 м
[Sc Ac As]
+25.2 +24.1 94 +35 +38 очень
душно
1004.8 990.6
21 11.09 штиль 0 12 км 6/1 600 м
[Sc Ac As Ci fib]
+28.3 +24.3 79 +40 +43 очень
душно
1001.5 987.3
00 12.09 штиль 0 12 км 8/1 600 м
[Sc Ac As Ci fib]
+25.6 +24.8 95 +36 +36 очень
душно
1001.7 987.6 +31.4
12 12.09 штиль 0 12 км мгла 8/6 700 м
[Cu Sc As trans Ci sp]
+27.2 +26.6 97 +42 +43 опасность
перегрева
1004.7 990.5 +24.4 10
15 12.09 В 2 14 км мгла 6/5 540 м
[Cu Sc As trans Cs]
+32.4 +25.7 68 +48 +56 опасность
перегрева
1005.9 991.7
18 12.09 СЗ 3 9000 м осадки на расстоянии 8/6 300 м
[Cu Sc As trans Cs]
+28.6 +22.3 69 +37 +42 очень
душно
1002.3 988.1
21 12.09 ЮЗ 3 2000 м гроза, ливневой дождь 10/10 150 м
[Cu Sc]
+24.0 +23.7 98 +33 +33 очень
душно
1002.7 988.5
12 13.09 штиль 0 12 км мгла 6/6 700 м
[Cu Sc Ci sp]
+24.6 +24.3 98 +34 +35 очень
душно
1005.3 991.1 +23.1 24
18 13.09 ЮЗ 6 7000 м осадки на расстоянии 9/8 300 м
[Cu Sc As trans Cs]
+28.0 +23.7 77 +38 +39 очень
душно
1004.9 990.7
21 13.09 Ю 4 10 км мгла 6/5 500 м
[Cu Sc As trans Cs]
+28.4 +23.4 74 +38 +40 очень
душно
1003.8 989.6
00 14.09 В 1 8000 м мгла 9/8 240 м
[Cu Sc As trans Cs]
+25.4 +24.8 96 +36 +36 очень
душно
1005.4 991.2 +31.5
03 14.09 штиль 0 10 км мгла 8/6 270 м
[Cu Sc As trans Cs]
+24.6 +24.3 98 +34 +34 очень
душно
1007.2 993.0
12 14.09 В 1 12 км мгла 6/6 450 м
[]
+26.6 +26.3 98 +40 +41 очень
душно
1006.5 992.3 +24.6
18 14.09 ЮЗ 2 14 км мгла 6/5 500 м
[Cu Sc As trans Ci sp]
+32.6 +23.2 58 +43 +52 опасность
перегрева
1005.3 991.3
21 14.09 З 2 14 км мгла 6/4 300 м
[Cu hum As trans Ci sp]
+33.0 +22.0 52 +41 +44 опасность
перегрева
1003.1 989.0
15 15.09 З 1 16 км мгла 6/5 300 м
[Cu Sc As trans Cs]
+32.0 +24.1 63 +44 +53 опасность
перегрева
1007.5 993.3
18 15.09 СЗ 2 9000 м осадки на расстоянии 9/8 300 м
[Cu Sc As trans Cs]
+28.6 +23.4 73 +39 +42 очень
душно
1004.2 990.0
21 15.09 СЗ 2 12 км мгла 5/4 300 м
[Cu hum As trans Cs]
+31.6 +24.6 66 +44 +46 опасность
перегрева
1001.3 987.5
12 16.09 штиль 0 14 км мгла 3/3 900 м
[St Ci fib]
+26.6 +26.0 97 +40 +42 очень
душно
1006.0 991.8 +24.3 0.0
18 16.09 нст 1 16 км мгла 5/5 360 м
[Cu Sc Ci fib]
+32.2 +24.3 63 +44 +56 опасность
перегрева
1003.6 989.4
21 16.09 ЮВ 1 14 км мгла 6/5 360 м
[Cu Sc As trans Cs]
+32.6 +24.7 63 +46 +48 опасность
перегрева
1001.6 987.4
12 17.09 СЗ 2 12 км мгла 8/6 450 м
[Cu Sc As trans Ci sp]
+24.8 +24.2 96 +34 +35 очень
душно
1006.0 991.8 +24.1
15 17.09 В 1 16 км мгла 6/5 450 м
[Cu Sc As trans Cs]
+29.8 +24.4 73 +42 +51 опасность
перегрева
1007.0 992.8
18 17.09 ЮЗ 2 16 км мгла 6/5 450 м
[Cu Sc As trans Cs]
+31.5 +23.1 61 +42 +51 опасность
перегрева
1003.9 989.6
21 17.09 Ю 2 10 км мгла 9/6 450 м
[Cu Sc As op Cs]
+25.8 +25.8 100 +38 +39 очень
душно
1002.4 988.3
00 18.09 штиль 0 12 км мгла 8/5 600 м
[Cu Sc As op Cs]
+25.8 +25.8 100 +38 +38 очень
душно
1002.1 988.0 +32.3
03 18.09 штиль 0 12 км мгла 8/4 600 м
[Cu Sc As op Cs]
+25.2 +25.2 100 +36 +36 очень
душно
1003.3 989.2
12 18.09 штиль 0 12 км мгла 8/6 700 м
[Cu Sc As trans Ci sp]
+24.8 +24.5 98 +35 +36 очень
душно
1004.8 990.5 +23.8 2

 

Местоположение метеостанции Араука (Колумбия): широта 7.07 долгота -70.73 высота над уровнем моря 128 м.

В архиве по умолчанию представлена погода в Арауке за последнюю неделю. Архивные данные за месяц целиком и за предыдущие месяцы, начиная с января 2011 года, Вы можете получить, выбрав интересующий диапазон дат из раскрывающегося списка и нажав кнопку "Ввод!".


*Определитесь, кто Вы:
робот инопланетянин человек

Внимание! Время в таблицах - всемирное. Для получения местного времени необходимо прибавить поправку, которая равна -5 ч.

Смотрите также архив погоды в соседних городах и на ближайших метеорологических станциях:

Погода в Гуасдуалито (Венесуэла) (19 км)
Погода в Мериде (Венесуэла) (177 км)
Погода в Баринасе (Венесуэла) (182 км)
Погода в Эль Вихии (Венесуэла) (201 км)
Погода в Сан-Антонио-дель-Тачира (Венесуэла) (209 км)
Погода в Кукуте (Колумбия) (218 км)
Погода в Гуанаре (Венесуэла) (243 км)
Погода в Валере (Венесуэла) (254 км)
Погода в Букараманге (Колумбия) (273 км)
Погода в Мене Гранде (Венесуэла) (307 км)

Пояснения к столбцам:

Ветер - указаны скорость ветра в м/с - средняя за 10 мин, порывы в срок и между сроками (в фигурных скобках) и направление, откуда дует ветер: С - северный, СВ - северо-восточный, В - восточный, ЮВ - юго-восточный, Ю - южный, ЮЗ - юго-западный, З - западный, СЗ - северо-западный.
Видимость - горизонтальная дальность видимости в метрах или километрах. При видимости от 1 до 10 км при отсутствии осадков обычно наблюдается дымка, при ухудшении видимости до 1 км и менее - туман. В сухую погоду видимость может ухудшаться дымом, пылью или мглою.
Явления - указаны атмосферные явления, наблюдавшиеся в срок или в последний час перед сроком; фигурными скобками обозначены явления, наблюдавшиеся между сроками (за 1-3 часа до срока); квадратными скобками обозначены град или гололедные отложения с указанием их диаметра в мм.
Облачность - указаны через наклонную черту общая и нижняя облачность в баллах и высота нижней границы облаков в метрах; квадратными скобками обозначены формы облаков: Ci - перистые, Cs - перисто-слоистые, Cc - перисто-кучевые, Ac - высококучевые, As - высокослоистые, Sc - слоисто-кучевые, Ns - слоисто-дождевые, Cu - кучевые, Cb - кучево-дождевые. Подробнее классификацию облаков см. в Атласе облаков (PDF).
T - Температура воздуха - температура, измеренная на высоте 2 м над землей.
Td - Температура точки росы - температура, при понижении до которой содержащийся в воздухе водяной пар достигнет насыщения.
f - Относительная влажность воздуха - влажноcть воздуха, измеренная на высоте 2 м над землей.
Te - Эффективная температура - температура, которую ощущает одетый по сезону человек в тени. Характеристика душности погоды. При расчете учитывается влияние влажности воздуха и скорости ветра на теплоощущения человека.
Tes - Эффективная температура на солнце - температура, которую ощущает человек, с поправкой на солнечный нагрев. Характеристика знойности погоды. Зависит от высоты солнца над горизонтом, облачности и скорости ветра. Ночью, в пасмурную погоду, а также при ветре 12 м/с и более поправка равна нулю.
P - Атмосферное давление - приведенное к уровню моря атмосферное давление.
Po - Атмосферное давление - измеренное на уровне метеостанции атмосферное давление.
Tmin - Минимальная температура - минимум температуры воздуха на высоте 2 м над землей.
Tmax - Максимальная температура - максимум температуры воздуха на высоте 2 м над землей.
R - Количество осадков - Количество выпавших осадков за период времени, мм. При наведении курсора мыши на число - период времени, за который выпало указанное количество осадков.
R24 - Количество осадков - Количество выпавших осадков за 24 часа, мм.
S - Снежный покров - Высота снежного покрова, см. При наведении курсора мыши на число - состояние снежного покрова и степень покрытия местности в баллах.